Regional Weather Roundup
Issued by NWS

Home | Current Version | Previous Version | Graphics & Text | Print | Product List | Glossary On
Versions: 1 2 3 4 5 6 7 8 9 10 11 12 13 14 15 16 17 18 19 20 21 22 23 24 25 26 27 28 29 30 31 32 33 34 35 36 37 38 39 40 41 42 43 44 45 46 47 48 49 50
000
ASUS45 KBOI 301410
RWRID
WEATHER ROUNDUP FOR IDAHO
NATIONAL WEATHER SERVICE BOISE ID
800 AM MDT TUE SEP 30 2014

NOTE: "FAIR" INDICATES FEW OR NO CLOUDS BELOW 12000 FEET
WITH NO SIGNIFICANT WEATHER AND/OR OBSTRUCTIONS TO VISIBILITY

IDZ012-014-301500-
SOUTHWEST IDAHO


CITY           SKY/WX    TMP DP  RH WIND       PRES   REMARKS
BOISE          CLOUDY    53  51  93 W6        29.94R FOG
CALDWELL       CLOUDY    54  45  71 NW3       29.97R
MOUNTAIN HOME  LGT RAIN  53  53 100 NW9       29.94R FOG
$$

IDZ016-017-301500-
SOUTHCENTRAL IDAHO


CITY           SKY/WX    TMP DP  RH WIND       PRES   REMARKS
BURLEY         CLOUDY    50  45  83 SW12      29.92F
JEROME         CLOUDY    49  46  90 S7        29.93R
TWIN FALLS     TSTM      53  46  77 SW9       29.94R
$$

IDZ019>023-301500-
SOUTHEAST IDAHO


CITY           SKY/WX    TMP DP  RH WIND       PRES   REMARKS
IDAHO FALLS    CLOUDY    49  47  93 SW12      29.92R
POCATELLO      CLOUDY    51  49  92 SW8       29.93S
REXBURG        CLOUDY    45  44  97 SW8       29.91R
$$

IDZ006-010-011-018-031-032-301500-
CENTRAL IDAHO MOUNTAINS


CITY           SKY/WX    TMP DP  RH WIND       PRES   REMARKS
MCCALL         CLOUDY    45  43  93 SE5       29.92R
HAILEY         MOCLDY    45  43  93 W5        29.94S
STANLEY          N/A     41  39  93 CALM      29.95R
SALMON         CLOUDY    48  46  93 CALM      29.86R
CHALLIS        CLOUDY    46  44  93 NW5       29.88F
$$

IDZ002-004-006-007-026-301500-
NORTHERN IDAHO


CITY           SKY/WX    TMP DP  RH WIND       PRES   REMARKS
LEWISTON       CLOUDY    55  41  59 W8        29.92R
LOWELL           N/A     54  54 100 SW3       29.92R
COEUR D`ALENE  CLOUDY    50  45  81 CALM      29.86R
MULLAN PASS    LGT RAIN  39  39 100 W10G20    29.85R VSB 1/4 WCI  32
$$



USA.gov is the U.S. government's official web portal to all federal, state and local government web resources and services.